GOES 15

Last updated on Sun Apr 12 2026 00:02:38 GMT+0000 (Coordinated Universal Time)

1 36411U 10008A 26101.46192174 .00000025 00000+0 00000+0 0 9993 2 36411 1.1004 84.1413 0003659 20.1188 324.9806 1.00271853 58964
UTC large
Height (km)
Speed (km/s)
/
Latitude / Longitude
Inclination (degrees)
Orbital Period (minutes)
Azimuth
Elevation
Range (km)
Doppler Factor

Next 0 passes for location: London (51.5072 / 0.1276)

Sorry there are no passes over London.
GOES 15